Location: Chippewa Lake
(41.0698°N, 81.9010°W)
Time: 01:28:16
(UTC+00:00)

Cosmos 1727 Rocket - Pass Details

Date: 09 May 2021
Orbit: 960 x 997 km, 82.9° (Epoch: 24 June)

Event Time Altitude Azimuth Distance (km) Brightness Sun altitude
Exits shadow 07:27:37 52° 242° (WSW) 1,215 4.1 -24.9°
Maximum altitude 07:28:41 59° 280° (W) 1,140 4.1 -24.7°
Drops below altitude 10° 07:34:57 10° 360° (N) 2,771 7.1 -24.1°
Sets 07:37:33 0° 4° (N) 3,726 8.0 -23.8°
